Baton Rouge, LA

6:22 PM CDT on April 26, 2018 (GMT -0500)
Baton Rouge Metro-Ryan

Weather History for KBTR - December, 2013

Change the Weather History Date:

Monday, December 16, 2013

  Actual Average Record
Temperature  
Mean Temperature 46 °F 53 °F  
Max Temperature 62 °F 64 °F 84 °F (1908)
Min Temperature 30 °F 43 °F 18 °F (1901)
Degree Days  
Heating Degree Days 19 12  
Month to date heating degree days 218 180  
Since 1 July heating degree days 505 415  
Cooling Degree Days 0 1  
Month to date cooling degree days 32 16  
Year to date cooling degree days 2698 2817  
Moisture  
Dew Point 32 °F    
Average Humidity 63    
Maximum Humidity 96    
Minimum Humidity 29    
Precipitation  
Precipitation 0.00 in 0.19 in 2.95 in (1927)
Month to date precipitation 3.06 2.78  
Year to date precipitation 68.20 57.83  
Snow  
Snow 0.00 in - - ()
Month to date snowfall 0.0  
Since 1 July snowfall 0.0  
Snow Depth 0.00 in    
Sea Level Pressure  
Sea Level Pressure 30.31 in    
Wind  
Wind Speed 0 mph (SW)    
Max Wind Speed 6 mph    
Max Gust Speed 15 mph    
Visibility 9 miles    
Events      
T = Trace of Precipitation, MM = Missing Value Source: NWS Daily Summary

Daily Weather History Graph

Daily Weather History Graph

Search for Another Location

Airport or City:

Astronomy

Dec. 16, 2013 Rise Set
Actual Time 6:54 AM CST 5:05 PM CST
Civil Twilight 6:28 AM CST 5:32 PM CST
Nautical Twilight 5:58 AM CST 6:02 PM CST
Astronomical Twilight 5:28 AM CST 6:31 PM CST
Moon 4:52 PM CST (12/16) 6:07 AM CST (12/16)
Length of Visible Light 11h 04m
Length of Day
10h 10m
Full, 100% of the Moon is Illuminated
Dec 16
Full
Dec 17
Full
Dec 25
Last Quarter
Jan 1
New
Jan 7
First Quarter

Hourly Weather History & Observations

Time (CST) Temp. Dew Point Humidity Pressure Visibility Wind Dir Wind Speed Gust Speed Precip Events Conditions
12:53 AM 34.0 °F 32.0 °F 92% 30.31 in 9.0 mi Calm Calm - N/A   Clear
1:53 AM 33.1 °F 30.9 °F 92% 30.32 in 7.0 mi Calm Calm - N/A   Clear
2:53 AM 32.0 °F 30.0 °F 92% 30.32 in 8.0 mi Calm Calm - N/A   Clear
3:53 AM 30.9 °F 28.9 °F 92% 30.33 in 7.0 mi Calm Calm - N/A   Clear
4:53 AM 30.9 °F 28.9 °F 92% 30.32 in 8.0 mi Calm Calm - N/A   Clear
5:53 AM 30.0 °F 28.0 °F 92% 30.32 in 9.0 mi Calm Calm - N/A   Clear
6:53 AM 30.0 °F 28.0 °F 92% 30.33 in 7.0 mi Calm Calm - N/A   Clear
7:53 AM 34.0 °F 32.0 °F 92% 30.35 in 6.0 mi Calm Calm - N/A   Clear
8:53 AM 39.9 °F 36.0 °F 86% 30.36 in 8.0 mi Calm Calm - N/A   Clear
9:53 AM 46.0 °F 36.0 °F 68% 30.38 in 10.0 mi Calm Calm - N/A   Clear
10:53 AM 51.1 °F 35.1 °F 54% 30.35 in 10.0 mi Calm Calm - N/A   Clear
11:53 AM 55.9 °F 36.0 °F 47% 30.32 in 10.0 mi Calm Calm - N/A   Clear
12:53 PM 57.9 °F 30.9 °F 36% 30.29 in 10.0 mi West 3.5 mph - N/A   Clear
1:53 PM 61.0 °F 28.9 °F 30% 30.27 in 10.0 mi Calm Calm - N/A   Clear
2:53 PM 61.0 °F 28.9 °F 30% 30.26 in 10.0 mi Calm Calm - N/A   Clear
3:53 PM 61.0 °F 28.9 °F 30% 30.25 in 10.0 mi Calm Calm - N/A   Clear
4:53 PM 55.0 °F 30.0 °F 38% 30.26 in 10.0 mi South 3.5 mph - N/A   Clear
5:53 PM 48.9 °F 35.1 °F 59% 30.28 in 10.0 mi Calm Calm - N/A   Clear
6:53 PM 45.0 °F 34.0 °F 65% 30.28 in 10.0 mi Calm Calm - N/A   Clear
7:53 PM 42.1 °F 35.1 °F 76% 30.30 in 10.0 mi Calm Calm - N/A   Clear
8:53 PM 39.9 °F 36.0 °F 86% 30.31 in 10.0 mi Calm Calm - N/A   Clear
9:53 PM 37.9 °F 34.0 °F 86% 30.32 in 10.0 mi Calm Calm - N/A   Clear
10:53 PM 37.0 °F 34.0 °F 89% 30.32 in 10.0 mi Calm Calm - N/A   Clear
11:53 PM 36.0 °F 33.1 °F 89% 30.30 in 10.0 mi Calm Calm - N/A   Clear